Temp
28 28 27 27 26 27 26 25 25 24 24 23 22 22 22 22 22 21 21 21 21 20 20 20 19 19 19 19 19 18 18 17 17 17 17 16 15 15 14 14 14 13
28 28 27 27 26 26 26 26 25 24 23 23 23 23 22 22 21 21 20 20 20 20 20 19 19 18 18 18 18 17 17 17 15 17 15 15 15 15 14 14 13 14
28 27 27 26 25 25 25 25 25 24 23 23 22 22 21 21 20 20 20 20 19 19 19 19 18 18 17 17 17 16 16 15 15 16 15 14 14 14 14 14 13 13
28 27 26 26 26 25 25 24 23 23 23 22 21 21 21 20 20 19 19 19 19 18 18 18 18 17 17 16 15 15 15 15 15 15 14 14 14 13 13 13 13 12
27 27 27 26 26 25 24 23 22 22 21 21 21 21 20 20 19 18 18 18 18 18 17 17 17 17 17 16 16 14 15 14 15 14 13 12 13 13 12 12 11 10
28 27 26 25 25 24 23 22 22 21 21 20 20 20 20 19 19 18 18 17 17 17 17 17 16 16 16 16 15 15 14 14 14 13 12 12 12 13 12 11 10 8
26 26 25 25 24 23 22 22 22 21 21 21 20 19 19 18 18 18 18 17 17 17 16 16 16 15 16 15 14 14 14 13 13 13 11 12 12 11 12 11 10 8
27 26 25 24 23 22 22 21 21 20 20 20 19 19 19 18 18 18 17 17 17 16 16 16 15 15 15 15 13 13 12 13 12 12 11 11 11 10 10 9 8 7
26 25 24 22 22 21 21 21 20 20 20 19 18 18 18 18 17 17 16 16 16 16 16 15 15 15 15 13 13 12 12 12 12 11 11 10 10 9 9 10 7 7
24 24 22 22 21 21 20 20 20 19 19 18 18 18 17 17 17 17 16 16 15 15 15 14 14 14 13 13 12 12 11 11 11 11 11 10 9 9 9 8 6 6
23 23 21 21 20 20 20 20 19 19 18 17 17 16 16 16 16 16 15 15 13 14 14 14 13 13 13 13 13 12 12 11 10 9 9 8 8 8 8 7 6 5
22 22 21 20 20 20 20 19 18 18 18 17 16 16 16 16 15 15 14 14 14 14 14 13 14 13 13 12 12 12 12 11 9 8 8 7 7 7 7 7 6 5
22 21 21 21 20 20 20 19 18 18 17 16 16 15 15 14 14 14 14 13 13 13 13 13 12 12 11 11 11 11 8 7 7 7 8 7 6 6 6 6 5 5
22 21 21 20 20 19 18 18 17 17 16 16 15 14 13 13 12 12 13 13 13 12 12 12 11 10 10 9 8 7 6 5 5 5 5 5 5 6 6 5 4 4
22 21 20 19 18 18 17 17 17 16 16 15 14 12 11 12 12 12 10 10 11 10 10 10 8 7 7 7 5 4 3 2 4 4 4 3 3 3 4 4 3 3
20 18 18 18 16 16 16 16 15 14 13 12 11 11 9 10 10 9 7 6 6 5 5 4 5 5 6 9 10 5 2 2 2 3 3 2 2 2 2 2 2 2
17 16 16 15 15 15 14 13 14 11 10 9 10 7 6 6 5 6 4 4 3 2 2 2 2 2 7 12 14 16 12 9 7 6 5 3 2 2 1 3 2 2
15 14 13 13 13 13 12 11 11 9 8 8 6 5 5 3 3 3 3 2 1 0 -0 0 0 4 11 13 15 16 16 12 11 10 9 7 4 3 4 5 4 3
14 13 12 11 11 10 10 6 6 7 6 4 3 4 2 1 2 3 1 0 -0 -1 -1 -1 -1 6 11 13 15 16 16 14 12 11 9 8 8 7 7 7 6 5
12 11 10 10 9 8 6 5 4 4 4 4 2 1 1 1 1 0 1 -1 -2 -2 -2 -2 -2 2 9 12 14 15 15 14 10 10 9 9 8 8 7 7 6 6
11 9 8 7 7 5 3 4 4 3 3 2 0 2 1 -1 -0 -1 -1 -2 -2 -3 -3 -3 -3 5 9 12 13 14 15 13 10 9 9 8 8 8 7 6 5 5
9 8 6 4 4 3 3 4 3 2 1 1 -0 -1 -2 -2 -2 -3 -3 -3 -2 -4 -4 -4 -3 7 10 12 13 14 14 11 9 8 8 7 7 7 6 6 5 4
8 6 5 3 3 2 2 2 3 1 0 -1 -2 -0 -0 -1 -2 -2 -2 -3 -3 -4 -5 -4 -3 3 8 10 12 13 11 8 8 7 6 5 5 5 4 4 3 3
7 5 4 3 2 2 3 3 2 1 1 -1 -1 -2 -1 -2 -2 -2 -3 -3 -4 -4 -4 -5 -3 0 7 9 11 12 11 7 7 6 5 5 5 5 4 4 3 3
6 5 4 2 2 2 1 2 2 1 1 -1 -1 -2 -2 -3 -3 -4 -4 -4 -4 -4 -2 -2 -3 -1 5 8 10 11 9 6 6 4 3 3 3 3 3 3 2 2
5 3 3 2 2 1 0 1 1 -1 -1 -1 -2 -3 -3 -4 -4 -5 -6 -4 -4 -5 -5 -4 -5 -4 -2 5 8 9 10 7 6 4 3 3 3 3 3 3 1 0
MSLP
1027.72 1028.00 1028.20 1028.44 1028.64 1028.88 1029.16 1029.56 1029.88 1030.16 1030.32 1030.60 1030.88 1031.12 1031.40 1031.52 1031.88 1032.20 1032.36 1032.52 1032.68 1032.84 1032.96 1033.16 1033.28 1033.40 1033.52 1033.64 1033.76 1033.84 1033.88 1033.92 1033.96 1034.04 1034.12 1034.24 1034.32 1034.36 1034.44 1034.48 1034.52 1034.48
1026.96 1027.20 1027.52 1027.88 1028.20 1028.44 1028.60 1028.80 1029.16 1029.52 1029.80 1030.08 1030.28 1030.64 1030.92 1031.24 1031.48 1031.76 1031.96 1032.16 1032.32 1032.44 1032.60 1032.80 1032.92 1033.04 1033.20 1033.32 1033.40 1033.52 1033.56 1033.60 1033.72 1033.72 1033.92 1033.96 1034.00 1034.04 1034.08 1034.16 1034.20 1034.28
1026.28 1026.68 1026.92 1027.08 1027.20 1027.52 1027.92 1028.28 1028.68 1029.00 1029.28 1029.52 1029.88 1030.20 1030.52 1030.80 1031.08 1031.36 1031.56 1031.76 1031.92 1032.08 1032.28 1032.44 1032.60 1032.72 1032.88 1032.92 1033.04 1033.16 1033.20 1033.28 1033.36 1033.44 1033.56 1033.64 1033.64 1033.72 1033.72 1033.84 1033.84 1033.92
1025.40 1025.64 1025.92 1026.24 1026.64 1027.04 1027.44 1027.96 1028.32 1028.60 1028.88 1029.24 1029.44 1029.72 1030.04 1030.36 1030.64 1030.96 1031.20 1031.40 1031.56 1031.68 1031.88 1032.08 1032.20 1032.36 1032.48 1032.60 1032.76 1032.76 1032.84 1032.88 1032.92 1033.08 1033.24 1033.24 1033.32 1033.40 1033.44 1033.48 1033.52 1033.64
1024.56 1025.00 1025.44 1025.80 1026.16 1026.60 1027.08 1027.44 1027.68 1028.00 1028.36 1028.60 1028.96 1029.36 1029.72 1029.96 1030.28 1030.56 1030.80 1031.00 1031.16 1031.36 1031.52 1031.68 1031.80 1031.92 1032.08 1032.20 1032.32 1032.44 1032.48 1032.56 1032.60 1032.76 1032.84 1032.92 1032.92 1033.08 1033.12 1033.20 1033.28 1033.36
1024.08 1024.48 1024.84 1025.24 1025.60 1026.12 1026.52 1026.72 1027.00 1027.44 1027.88 1028.28 1028.44 1028.88 1029.16 1029.44 1029.76 1030.04 1030.28 1030.60 1030.76 1030.96 1031.12 1031.24 1031.40 1031.52 1031.68 1031.76 1031.92 1031.96 1032.04 1032.08 1032.16 1032.40 1032.44 1032.48 1032.52 1032.56 1032.76 1032.84 1032.92 1033.04
1023.32 1023.80 1024.24 1024.68 1025.24 1025.60 1025.92 1026.20 1026.56 1026.92 1027.28 1027.56 1028.08 1028.48 1028.76 1029.08 1029.36 1029.56 1029.84 1030.08 1030.28 1030.48 1030.64 1030.80 1030.96 1031.12 1031.24 1031.40 1031.52 1031.52 1031.56 1031.68 1031.80 1031.92 1032.04 1032.04 1032.08 1032.20 1032.28 1032.44 1032.48 1032.56
1022.68 1023.20 1023.76 1024.36 1024.80 1025.16 1025.48 1025.76 1026.08 1026.44 1026.80 1027.28 1027.64 1027.92 1028.28 1028.56 1028.84 1029.12 1029.40 1029.64 1029.84 1030.00 1030.16 1030.32 1030.44 1030.60 1030.76 1030.96 1031.04 1031.08 1031.16 1031.24 1031.40 1031.48 1031.56 1031.60 1031.68 1031.76 1031.88 1031.92 1032.04 1032.12
1022.32 1022.92 1023.36 1023.88 1024.32 1024.68 1025.00 1025.28 1025.64 1026.04 1026.44 1026.84 1027.20 1027.52 1027.88 1028.12 1028.40 1028.76 1029.00 1029.24 1029.40 1029.56 1029.72 1029.88 1030.04 1030.20 1030.32 1030.48 1030.52 1030.60 1030.68 1030.72 1030.84 1031.00 1031.08 1031.12 1031.20 1031.24 1031.36 1031.48 1031.56 1031.60
1022.00 1022.40 1023.00 1023.44 1023.84 1024.08 1024.48 1024.80 1025.24 1025.64 1026.04 1026.44 1026.76 1027.12 1027.48 1027.76 1028.12 1028.36 1028.64 1028.84 1029.00 1029.16 1029.32 1029.48 1029.64 1029.76 1029.92 1029.96 1030.04 1030.12 1030.20 1030.28 1030.36 1030.48 1030.56 1030.60 1030.68 1030.76 1030.88 1030.96 1031.00 1031.12
1021.56 1022.04 1022.56 1022.96 1023.28 1023.64 1024.00 1024.44 1024.88 1025.28 1025.68 1026.04 1026.44 1026.80 1027.08 1027.44 1027.80 1028.08 1028.28 1028.40 1028.60 1028.72 1028.88 1029.04 1029.20 1029.36 1029.44 1029.48 1029.52 1029.60 1029.72 1029.80 1029.92 1030.00 1030.08 1030.12 1030.16 1030.24 1030.36 1030.48 1030.52 1030.48
1021.16 1021.64 1022.08 1022.36 1022.76 1023.16 1023.60 1024.00 1024.48 1024.88 1025.28 1025.72 1026.08 1026.36 1026.76 1027.04 1027.36 1027.60 1027.76 1027.92 1028.08 1028.28 1028.44 1028.60 1028.76 1028.88 1028.96 1029.00 1029.04 1029.12 1029.20 1029.32 1029.44 1029.56 1029.60 1029.68 1029.76 1029.80 1029.84 1029.88 1029.92 1029.96
1020.76 1021.08 1021.44 1021.92 1022.32 1022.72 1023.20 1023.72 1024.08 1024.48 1024.92 1025.32 1025.64 1025.96 1026.28 1026.64 1026.92 1027.16 1027.28 1027.52 1027.64 1027.88 1028.04 1028.20 1028.36 1028.44 1028.52 1028.60 1028.64 1028.76 1028.88 1028.96 1029.08 1029.08 1029.12 1029.16 1029.20 1029.24 1029.28 1029.32 1029.36 1029.40
1020.32 1020.68 1021.16 1021.56 1022.00 1022.52 1022.96 1023.36 1023.76 1024.20 1024.60 1024.88 1025.28 1025.64 1025.92 1026.24 1026.48 1026.72 1026.92 1027.12 1027.28 1027.48 1027.64 1027.84 1028.04 1028.12 1028.16 1028.24 1028.32 1028.44 1028.60 1028.68 1028.72 1028.72 1028.72 1028.68 1028.68 1028.68 1028.72 1028.76 1028.76 1028.88
1020.04 1020.56 1021.00 1021.48 1021.96 1022.36 1022.76 1023.12 1023.52 1023.92 1024.24 1024.56 1024.92 1025.28 1025.60 1025.88 1026.12 1026.36 1026.64 1026.84 1027.04 1027.24 1027.40 1027.56 1027.68 1027.72 1027.76 1027.88 1028.04 1028.20 1028.36 1028.40 1028.32 1028.28 1028.24 1028.20 1028.16 1028.16 1028.16 1028.20 1028.24 1028.28
1019.92 1020.44 1020.88 1021.32 1021.80 1022.12 1022.48 1022.88 1023.28 1023.64 1024.00 1024.36 1024.72 1025.04 1025.36 1025.60 1025.88 1026.08 1026.32 1026.60 1026.84 1027.00 1027.20 1027.36 1027.44 1027.44 1027.44 1027.40 1027.36 1027.56 1027.80 1027.84 1027.84 1027.68 1027.60 1027.52 1027.48 1027.52 1027.52 1027.56 1027.52 1027.56
1019.92 1020.40 1020.84 1021.20 1021.52 1021.92 1022.36 1022.76 1023.08 1023.48 1023.88 1024.20 1024.52 1024.88 1025.16 1025.44 1025.72 1025.96 1026.20 1026.40 1026.60 1026.84 1027.00 1027.08 1027.12 1027.12 1027.00 1026.68 1026.40 1026.16 1026.20 1026.40 1026.48 1026.48 1026.56 1026.72 1026.80 1026.84 1026.76 1026.64 1026.64 1026.68
1019.80 1020.32 1020.72 1021.04 1021.48 1021.80 1022.20 1022.56 1022.92 1023.36 1023.76 1024.08 1024.44 1024.76 1025.00 1025.32 1025.56 1025.68 1025.92 1026.16 1026.40 1026.60 1026.68 1026.68 1026.68 1026.64 1026.28 1026.00 1025.72 1025.44 1025.32 1025.24 1025.16 1025.16 1025.16 1025.20 1025.52 1025.68 1025.56 1025.48 1025.44 1025.68
1019.80 1020.16 1020.52 1020.96 1021.28 1021.68 1022.08 1022.56 1022.92 1023.28 1023.60 1023.96 1024.24 1024.48 1024.88 1025.08 1025.20 1025.48 1025.72 1025.96 1026.12 1026.16 1026.24 1026.28 1026.32 1026.08 1025.72 1025.40 1025.12 1024.84 1024.64 1024.60 1024.56 1024.52 1024.52 1024.44 1024.44 1024.52 1024.52 1024.52 1024.52 1024.64
1019.68 1020.08 1020.40 1020.80 1021.28 1021.68 1022.12 1022.48 1022.88 1023.08 1023.36 1023.72 1024.04 1024.48 1024.68 1024.84 1025.08 1025.24 1025.40 1025.56 1025.64 1025.68 1025.72 1025.80 1025.84 1025.80 1025.36 1025.00 1024.68 1024.36 1024.08 1023.96 1024.00 1023.92 1023.84 1023.76 1023.72 1023.76 1023.76 1023.76 1023.84 1023.88
1019.68 1020.04 1020.32 1020.80 1021.24 1021.68 1022.12 1022.40 1022.68 1023.00 1023.28 1023.60 1023.92 1024.08 1024.28 1024.48 1024.64 1024.84 1024.96 1025.08 1025.20 1025.32 1025.36 1025.32 1025.36 1025.16 1024.76 1024.44 1024.12 1023.80 1023.52 1023.40 1023.40 1023.36 1023.28 1023.16 1023.12 1023.16 1023.20 1023.28 1023.36 1023.52
1019.52 1019.92 1020.24 1020.76 1021.20 1021.68 1022.00 1022.16 1022.52 1022.76 1022.96 1023.32 1023.76 1023.96 1024.12 1024.32 1024.44 1024.60 1024.64 1024.72 1024.76 1024.88 1024.96 1024.80 1024.76 1024.48 1024.16 1023.84 1023.56 1023.28 1023.04 1023.00 1022.92 1022.88 1022.76 1022.68 1022.72 1022.72 1022.84 1022.88 1023.00 1023.16
1019.44 1019.72 1020.20 1020.68 1021.16 1021.48 1021.72 1021.96 1022.12 1022.56 1022.92 1023.24 1023.48 1023.60 1023.76 1023.96 1023.96 1024.08 1024.12 1024.24 1024.32 1024.44 1024.48 1024.28 1024.24 1024.12 1023.84 1023.52 1023.24 1022.92 1022.80 1022.72 1022.64 1022.52 1022.40 1022.32 1022.28 1022.44 1022.48 1022.56 1022.68 1022.76
1019.36 1019.68 1020.04 1020.52 1020.96 1021.08 1021.28 1021.60 1021.96 1022.24 1022.48 1022.88 1023.00 1023.12 1023.28 1023.36 1023.52 1023.68 1023.72 1023.80 1023.84 1023.84 1023.92 1023.92 1023.68 1023.72 1023.52 1023.16 1022.84 1022.56 1022.36 1022.24 1022.04 1021.88 1021.72 1021.68 1021.60 1021.76 1021.96 1022.00 1022.16 1022.28
1019.36 1019.64 1019.84 1020.20 1020.52 1020.84 1021.16 1021.40 1021.64 1021.84 1022.04 1022.48 1022.60 1022.76 1022.80 1023.00 1023.20 1023.28 1023.32 1023.40 1023.44 1023.44 1023.52 1023.52 1023.32 1023.24 1023.12 1022.80 1022.44 1022.16 1022.00 1021.92 1021.80 1021.68 1021.56 1021.44 1021.48 1021.40 1021.44 1021.48 1021.56 1021.68
1019.20 1019.36 1019.68 1019.96 1020.24 1020.64 1021.04 1021.16 1021.32 1021.68 1021.88 1022.04 1022.32 1022.52 1022.60 1022.76 1022.92 1023.00 1023.00 1022.92 1023.04 1023.20 1023.20 1023.16 1023.12 1022.88 1022.92 1022.60 1022.20 1021.80 1021.52 1021.36 1021.20 1021.00 1020.76 1020.76 1020.80 1020.68 1020.60 1020.60 1020.80 1021.00
Wind_Speed
12 11 12 11 10 10 9 10 9 9 8 7 8 7 8 7 7 8 8 7 8 8 7 7 7 7 6 7 7 7 7 8 7 7 7 7 8 9 8 9 9 9
14 13 10 9 8 9 9 10 9 9 9 8 8 7 7 7 7 8 8 8 8 8 8 8 7 8 7 7 7 7 7 7 8 6 7 9 8 9 10 11 10 9
12 12 13 14 12 13 12 9 9 9 8 8 8 7 7 7 7 7 7 8 8 8 8 8 8 8 8 8 8 7 7 8 8 7 8 9 8 9 9 9 9 11
14 14 13 12 11 11 10 9 9 8 7 7 8 7 7 6 7 8 8 8 8 8 8 8 8 8 8 8 8 7 8 8 8 8 8 8 8 9 9 9 10 9
13 12 11 11 10 9 9 10 10 9 9 9 7 8 7 7 7 7 7 7 7 8 7 8 8 8 8 8 8 8 8 8 8 8 8 8 8 8 8 9 10 11
10 11 11 11 11 11 10 11 10 10 9 9 9 7 8 8 8 8 8 8 7 8 8 8 8 8 8 8 8 9 8 8 8 9 10 10 9 9 8 9 10 10
12 11 13 10 10 11 11 10 9 9 9 8 7 8 8 8 8 8 8 8 9 8 9 8 9 8 8 8 9 9 9 9 9 9 10 10 9 10 10 10 11 10
12 10 9 9 11 11 11 10 9 9 9 7 9 8 8 8 9 7 8 8 8 9 9 9 9 9 9 8 9 10 10 7 8 10 10 11 10 11 11 9 9 10
9 9 10 11 12 10 11 10 9 8 8 8 8 7 7 8 8 8 8 8 9 8 9 8 9 9 9 9 10 10 11 9 9 10 11 11 11 11 11 11 10 10
10 9 11 11 12 10 11 10 9 8 8 8 8 7 7 7 8 8 8 8 9 9 9 8 9 9 9 10 11 11 10 11 10 10 10 11 11 11 11 10 10 10
11 10 11 11 12 10 11 10 9 8 7 8 7 7 8 7 7 8 8 8 8 9 9 9 9 10 10 10 10 10 11 10 9 9 10 9 10 10 10 10 10 11
10 10 11 12 11 10 11 10 8 8 8 7 8 8 8 8 8 7 8 8 8 8 9 9 9 9 10 11 11 10 10 10 8 9 9 9 9 9 10 10 10 10
10 11 10 11 11 9 8 8 8 8 8 8 8 8 8 8 7 8 7 8 8 8 8 9 9 9 9 9 9 9 7 8 7 9 10 8 9 10 10 10 10 9
10 9 9 9 8 7 8 8 7 8 8 7 7 7 8 8 8 8 7 7 7 7 8 7 8 8 8 8 7 7 7 7 8 8 9 8 9 9 9 9 9 9
7 7 7 8 8 8 8 8 8 7 7 6 7 5 6 8 7 7 7 7 6 7 7 6 6 6 5 6 6 9 8 8 8 8 9 9 8 9 9 10 11 11
8 9 8 7 8 8 8 7 7 7 7 7 7 7 6 7 7 6 5 6 5 5 5 5 6 5 8 14 14 9 9 9 10 12 12 13 13 12 12 12 13 12
9 9 9 9 9 7 7 7 7 8 8 6 6 5 6 5 5 7 6 5 7 7 7 7 7 7 14 18 20 23 15 12 13 14 14 13 13 14 14 14 13 13
9 9 9 9 8 8 8 8 7 6 6 7 5 6 6 4 6 7 6 6 6 6 7 7 7 10 18 19 21 22 21 16 13 12 11 11 11 12 12 12 12 12
9 10 9 9 9 8 7 5 5 5 6 5 7 6 4 6 8 7 7 7 7 8 8 6 7 13 18 21 21 22 23 20 11 9 11 11 10 10 10 10 10 10
9 9 10 9 8 7 6 5 5 7 6 5 5 4 6 6 6 7 7 7 8 8 8 7 8 11 18 20 21 23 23 20 11 11 12 11 11 12 10 12 11 11
9 9 7 7 7 7 5 6 7 6 6 6 5 7 7 8 8 8 8 8 8 7 7 8 8 13 18 20 21 23 23 21 11 9 10 9 9 10 10 10 10 10
9 8 5 5 5 5 6 7 7 7 7 5 4 5 4 4 4 4 7 7 8 7 7 9 8 15 18 20 21 22 23 15 12 10 9 12 12 10 10 10 10 10
9 7 6 6 6 6 7 7 8 6 5 4 5 5 5 6 7 6 5 7 7 7 8 8 7 12 17 20 21 22 19 12 9 10 14 12 11 11 10 11 9 11
8 7 7 7 7 8 8 6 5 4 5 5 7 7 6 7 5 5 5 6 7 8 8 8 9 10 17 19 21 22 20 12 8 8 8 8 8 8 7 8 9 15
6 7 7 7 8 8 7 8 7 7 5 5 6 5 6 4 4 5 5 4 5 7 9 10 10 10 16 20 21 21 17 13 12 14 14 15 14 13 11 9 10 11
6 7 7 7 8 7 6 8 5 4 6 6 5 5 5 4 4 4 7 6 5 7 8 8 9 10 10 19 21 21 22 14 10 7 8 10 12 13 12 9 10 8
Wind_Direction
206 200 205 201 203 200 196 194 195 196 197 195 197 202 202 204 197 201 206 205 207 208 210 211 211 212 212 214 213 219 222 229 235 234 239 237 245 245 247 250 251 253
206 203 201 201 201 201 201 194 192 191 196 194 199 198 201 195 199 195 202 205 206 211 209 212 210 211 213 213 213 215 223 224 227 230 228 236 241 243 245 248 249 246
202 201 201 201 200 197 196 190 189 194 193 196 192 195 196 192 195 197 202 203 206 209 210 210 213 212 212 216 214 216 222 224 226 226 231 232 237 242 242 243 246 241
205 202 201 202 197 196 190 185 192 193 191 191 196 193 190 191 192 195 202 202 208 209 211 211 213 214 213 217 213 222 220 226 224 226 231 235 231 235 239 241 242 238
202 200 200 200 199 192 184 189 191 191 190 194 189 190 192 192 192 198 201 205 206 212 210 215 213 216 215 219 216 222 222 224 224 223 231 233 230 228 234 233 235 235
200 199 198 197 191 186 189 192 191 187 188 191 194 186 197 193 194 198 202 204 207 210 214 213 215 215 217 219 219 223 221 226 220 221 231 235 235 230 223 231 228 232
197 192 197 191 188 191 192 191 189 187 188 190 176 194 190 194 197 201 203 205 208 210 213 214 215 217 215 220 221 225 223 220 224 221 228 234 236 234 230 224 230 230
198 192 188 184 190 187 194 190 189 187 184 177 188 195 186 194 198 199 202 207 209 214 216 216 219 220 218 219 222 225 225 217 219 224 228 233 233 236 230 228 227 230
190 186 184 186 187 189 192 190 187 182 177 183 189 192 190 194 198 199 204 205 212 214 217 218 219 221 220 218 224 220 224 222 217 222 228 231 233 234 231 228 230 231
190 183 181 184 190 191 192 188 182 181 176 186 189 187 191 197 197 203 203 206 212 215 218 220 222 222 223 223 223 223 222 225 222 222 225 228 230 231 232 230 229 232
189 182 183 187 192 188 190 182 181 178 177 184 182 191 193 192 199 199 205 207 210 215 219 221 223 225 227 227 225 223 225 225 223 222 226 228 227 227 227 227 229 232
188 182 189 189 188 187 185 180 175 177 179 183 185 191 190 196 197 198 199 210 211 217 219 224 224 225 228 228 228 224 227 225 223 226 227 227 227 227 226 226 228 230
186 189 187 187 186 183 172 173 177 177 179 185 184 189 188 195 198 202 206 207 214 215 220 223 226 227 226 228 228 225 222 229 225 229 229 227 228 226 226 228 229 230
191 186 183 184 174 168 173 174 173 177 184 183 176 186 190 195 197 200 205 206 215 216 222 219 224 225 228 227 224 226 226 224 228 228 234 233 233 231 227 228 229 231
176 176 173 165 166 166 170 175 177 180 179 178 181 185 191 196 199 201 200 212 217 217 222 219 219 225 221 220 222 231 222 225 231 231 233 237 233 233 230 234 237 236
167 161 164 160 161 172 171 172 175 173 170 175 185 185 188 192 194 205 203 208 215 219 218 215 225 226 229 231 234 221 220 229 234 237 238 240 241 241 242 238 238 235
160 164 156 169 170 159 164 168 177 165 171 184 187 186 195 198 197 208 212 208 216 219 224 225 229 225 236 248 255 257 250 234 237 244 241 237 237 237 242 246 240 233
162 154 163 166 158 170 168 166 163 166 179 188 189 196 202 186 206 215 216 218 221 223 225 227 230 233 245 256 260 261 261 258 254 253 248 240 222 226 234 240 242 237
155 162 162 159 169 163 164 154 170 183 194 189 204 205 196 206 214 213 222 221 223 227 231 228 233 241 253 261 264 265 267 268 262 248 249 247 242 233 233 236 239 233
156 157 163 168 156 154 159 169 179 202 203 199 194 182 202 215 219 220 223 224 224 229 234 232 236 240 254 263 266 267 268 268 263 259 255 250 249 248 243 248 243 245
158 167 173 164 159 156 166 188 198 203 198 190 186 196 205 210 217 222 225 225 231 230 233 240 235 243 256 264 266 269 271 274 268 261 257 250 255 257 252 249 245 242
160 166 166 165 161 167 184 196 197 203 207 193 187 209 217 212 227 209 228 232 231 230 238 249 247 251 261 266 269 272 275 278 274 262 253 263 264 260 257 255 250 241
164 162 171 172 173 183 196 203 198 208 211 174 205 208 210 207 213 216 216 228 234 230 236 252 252 254 262 268 270 272 275 273 264 265 268 263 256 255 249 245 236 235
162 166 175 183 182 195 203 198 205 202 207 181 196 203 213 209 212 222 222 221 232 238 232 244 257 255 261 267 270 271 272 267 253 248 245 250 254 254 257 255 241 234
166 173 178 182 191 200 199 202 203 204 194 182 204 204 219 203 209 220 230 230 228 239 242 245 257 259 262 268 271 272 274 272 270 267 266 265 263 259 254 246 241 228
167 175 183 185 196 200 196 206 200 186 188 191 200 196 209 209 213 223 234 241 228 237 243 244 254 261 258 265 270 271 272 271 264 250 247 254 256 260 257 244 236 230